Tracking 35274 objects as of 10-Sep-2026
HD Live streaming from Space Station
objects crossing your sky now

DELTA 1 DEB


DELTA 1 DEB is no longer on orbit


NORAD ID: 7208
Int'l Code: 1973-086FS
Launch date: November 6, 1973
Source: United States (US)
Launch site: AIR FORCE WESTERN TEST RANGE (AFWTR)
Decay date: 1978-12-22

Note: This is SATELLITE DEBRIS
Your satellite tracking list
Your tracking list is empty




NASA's NSSDC Master Catalog

Two Line Element Set (TLE):
1 07208U 73086 FS 78310.98576211  .00644121 +00000-0 +00000-0 0  9997
2 07208 102.0827 140.4927 0483575 257.6540 096.9358 14.08961790250885
Source of the keplerian elements: AFSPC